一网星座-0314星 (ONEWEB-0314 )

导读 | 星芒AI

ONEWEB-0314 是 OneWeb 卫星星座计划中的一颗低轨通信卫星,旨在为全球提供高速互联网服务。该卫星于2023年发射,属于OneWeb第二代卫星系列,采用先进通信技术,支持更广覆盖与更高带宽。其部署有助于填补数字鸿沟,特别是在偏远和农村地区。该卫星运行在约1200公里高度的近地轨道,具备高容量和低延迟特性,是OneWeb构建全球宽带网络的重要组成部分。

基本信息
目录编号:
49100
目录名称:
ONEWEB-0314
国际标识:
2021-075AB
轨道中心:
EARTH
卫星名称:
一网星座-0314星
卫星全名:
一网星座-0314星 (ONEWEB-0314 )
卫星状态:
在轨 (已飞行1577 天)
发射日期:
2021-08-21 UTC
国别 :
英国 (GB)
星等 :
--
轨道信息
数据来源 国际轨道数据 AOE轨道数据
星历时间 2025-12-14T23:11:59+0800
1天前
查看轨道信息
2025-12-14T05:00:00+0800
1天前
查看轨道信息
半长轴 7571.857km 7571.851km
偏心率 0.0001457 0.0001412
轨道倾角 87.912° 87.913°
近地点辐角 109.133° 115.002°
升交点赤经 42.536° 42.685°
平近点角 250.996° 250.048°
近地点 1192.618km 1192.646km
远地点 1194.826km 1194.786km
周期 109.286分钟 109.286分钟
每日圈数 13.176475 13.176489
详细信息
平衡模式:
三轴稳定
覆盖范围:
全球
运营商:
一网卫星公司
运营商所在国:
英国
制造商(研发单位):
一网卫星公司
制造商所在国:
英国
使用方式:
暂无
卫星简介
OneWeb卫星网络由648颗重约125公斤的微型卫星组成,运行在1200公里的轨道上。 每颗卫星都能够提供至少每秒8千兆位的吞吐量,以使用其高吞吐量的Ku频段有效载荷为家庭和移动平台提供互联网接入。该卫星仍在工作。
2D轨道图
3D轨道图
轨道高度分析图
轨道倾角分析图
轨道综合分析图
查看轨道综合分析图